This demonstration page uses our WeatherBlox Daily Observations layout. Learn more.

Hourly Observations for February 20, 2020

Temp ( °F °C ) Dew Point ( °F °C ) Humidity (%) Winds ( mph kmh ) Pressure ( in mb ) Visibility ( mi km ) Precip ( " mm )
12:53 am 00:53 Clear 27 -2.8 23 -5 85 85 Calm 30.53 1034 10 16.0934 0 0
1:53 am 01:53 Clear 27 -2.8 24 -4.4 89 89 Calm 30.52 1034 10 16.0934 0 0
2:53 am 02:53 Clear 26 -3.3 23 -5 88 88 Calm 30.52 1034 10 16.0934 0 0
3:53 am 03:53 Clear 30 -1.1 22 -5.6 72 72 N 6 9 30.52 1034 10 16.0934 0 0
4:53 am 04:53 Clear 29 -1.7 21 -6.1 72 72 N 6 9 30.52 1034 10 16.0934 0 0
5:53 am 05:53 Clear 28 -2.2 20 -6.7 72 72 N 6 9 30.53 1034 10 16.0934 0 0
6:53 am 06:53 Mostly Clear 26 -3.3 17 -8.3 69 69 NNE 7 11 30.55 1035 10 16.0934 0 0
7:53 am 07:53 Mostly Sunny 25 -3.9 11 -11.7 55 55 N 9 15 30.59 1036 10 16.0934 0 0
8:53 am 08:53 Mostly Sunny 25 -3.9 12 -11.1 58 58 N 10 17 30.61 1037 10 16.0934 0 0
9:53 am 09:53 Sunny 28 -2.2 13 -10.6 53 53 NNE 10 17 30.62 1037 10 16.0934 0 0
10:53 am 10:53 Partly Cloudy 28 -2.2 13 -10.6 53 53 NE 9 15 30.62 1037 10 16.0934 0 0
11:53 am 11:53 Mostly Cloudy 31 -0.6 15 -9.4 52 52 NNE 10 17 30.62 1037 10 16.0934 0 0
12:53 pm 12:53 Partly Cloudy 31 -0.6 15 -9.4 52 52 N 13 20 30.6 1036 10 16.0934 0 0
1:53 pm 13:53 Mostly Sunny 32 0 16 -8.9 52 52 N 10 17 30.58 1036 10 16.0934 0 0
2:53 pm 14:53 Sunny 32 0 15 -9.4 50 50 NNW 13 20 30.58 1035 10 16.0934 0 0
3:53 pm 15:53 Mostly Sunny 31 -0.6 14 -10 49 49 N 15 24 30.57 1035 10 16.0934 0 0
4:53 pm 16:53 Mostly Sunny 29 -1.7 13 -10.6 51 51 N 13 20 30.58 1036 10 16.0934 0 0
5:53 pm 17:53 Mostly Sunny 27 -2.8 11 -11.7 51 51 N 10 17 30.59 1036 10 16.0934 0 0
6:53 pm 18:53 Clear 25 -3.9 10 -12.2 53 53 N 7 11 30.62 1037 10 16.0934 0 0
7:53 pm 19:53 Clear 24 -4.4 10 -12.2 55 55 N 7 11 30.63 1037 10 16.0934 0 0
8:53 pm 20:53 Clear 23 -5 10 -12.2 57 57 N 3 6 30.65 1038 10 16.0934 0 0
9:53 pm 21:53 Clear 17 -8.3 11 -11.7 77 77 NW 3 6 30.66 1038 10 16.0934 0 0
10:53 pm 22:53 Clear 17 -8.3 12 -11.1 80 80 Calm 30.67 1039 10 16.0934 0 0
11:53 pm 23:53 Clear 17 -8.3 13 -10.6 84 84 Calm 30.66 1038 10 16.0934 0 0

Powered by AerisWeather